• In Deutschland
  • Länderverzeichnis
  • Für 7 Tage
  • Wassertemperatur
  • Satellitenkarten
  • Wetterkarte
  • Widgets
  • user-avatar
    Anmelden

    Stündliche Wetter Suhoy Ruchey

    Heute, 23 April, Montag

    Zeit Temperatur Niederschläge Wind Luftdruck Luftfeuchtigkeit
    00:00 +5°C° 0 mm 3 m/S 721 mmHg 62%
    01:00 +5°C° 0 mm 4 m/S 721 mmHg 58%
    02:00 +5°C° 0 mm 3 m/S 721 mmHg 59%
    03:00 +4°C° 0 mm 3 m/S 721 mmHg 60%
    04:00 +4°C° 0 mm 3 m/S 721 mmHg 61%
    05:00 +5°C° 0 mm 3 m/S 721 mmHg 60%
    06:00 +7°C° 0 mm 2 m/S 722 mmHg 60%
    07:00 +10°C° 0 mm 2 m/S 722 mmHg 59%
    08:00 +13°C° 0 mm 1 m/S 722 mmHg 53%
    09:00 +16°C° 0 mm 1 m/S 722 mmHg 47%
    10:00 +20°C° 0 mm 1 m/S 722 mmHg 41%
    11:00 +21°C° 0 mm 1 m/S 721 mmHg 38%
    12:00 +22°C° 0 mm 1 m/S 721 mmHg 36%
    13:00 +22°C° 0 mm 1 m/S 721 mmHg 32%
    14:00 +22°C° 0 mm 1 m/S 721 mmHg 33%
    15:00 +22°C° 0 mm 1 m/S 721 mmHg 34%
    16:00 +22°C° 0 mm 1 m/S 720 mmHg 35%
    17:00 +19°C° 0 mm 1 m/S 720 mmHg 41%
    18:00 +16°C° 0 mm 1 m/S 720 mmHg 46%
    19:00 +14°C° 0 mm 1 m/S 719 mmHg 52%
    20:00 +13°C° 0 mm 2 m/S 720 mmHg 54%
    21:00 +12°C° 0 mm 2 m/S 720 mmHg 56%
    22:00 +10°C° 0 mm 2 m/S 720 mmHg 58%
    23:00 +9°C° 0 mm 2 m/S 720 mmHg 57%

    Morgen, 24 April, Dienstag

    Zeit Temperatur Niederschläge Wind Luftdruck Luftfeuchtigkeit
    00:00 +9°C° 0 mm 2 m/S 720 mmHg 57%
    01:00 +9°C° 0 mm 2 m/S 719 mmHg 57%
    02:00 +8°C° 0 mm 2 m/S 719 mmHg 56%
    03:00 +8°C° 0 mm 2 m/S 719 mmHg 55%
    04:00 +8°C° 0 mm 2 m/S 718 mmHg 54%
    05:00 +9°C° 0 mm 3 m/S 718 mmHg 51%
    06:00 +11°C° 0 mm 3 m/S 718 mmHg 48%
    07:00 +12°C° 0 mm 3 m/S 718 mmHg 45%
    08:00 +16°C° 0 mm 2 m/S 717 mmHg 40%
    09:00 +19°C° 0 mm 2 m/S 717 mmHg 35%
    10:00 +23°C° 0 mm 2 m/S 716 mmHg 30%
    11:00 +24°C° 0 mm 2 m/S 716 mmHg 28%
    12:00 +25°C° 0 mm 2 m/S 716 mmHg 26%
    13:00 +27°C° 0 mm 2 m/S 715 mmHg 24%
    14:00 +26°C° 0 mm 2 m/S 715 mmHg 25%
    15:00 +26°C° 0 mm 2 m/S 714 mmHg 26%
    16:00 +26°C° 0 mm 1 m/S 714 mmHg 27%
    17:00 +23°C° 0 mm 1 m/S 714 mmHg 32%
    18:00 +20°C° 0 mm 2 m/S 714 mmHg 37%
    19:00 +17°C° 0 mm 2 m/S 714 mmHg 43%
    20:00 +16°C° 0 mm 2 m/S 715 mmHg 52%
    21:00 +14°C° 0 mm 2 m/S 715 mmHg 60%
    22:00 +12°C° 0 mm 3 m/S 716 mmHg 69%
    23:00 +12°C° 0,1 mm 2 m/S 717 mmHg 75%

    übermorgen, 25 April, Mittwoch

    Zeit Temperatur Niederschläge Wind Luftdruck Luftfeuchtigkeit
    00:00 +12°C° 0,1 mm 2 m/S 717 mmHg 80%
    01:00 +12°C° 0,1 mm 2 m/S 718 mmHg 86%
    02:00 +11°C° 0,3 mm 1 m/S 718 mmHg 87%
    03:00 +11°C° 0,3 mm 1 m/S 719 mmHg 88%
    04:00 +11°C° 0,3 mm 1 m/S 719 mmHg 89%
    05:00 +11°C° 0 mm 1 m/S 720 mmHg 85%
    06:00 +11°C° 0 mm 1 m/S 720 mmHg 82%
    07:00 +11°C° 0 mm 1 m/S 720 mmHg 79%
    08:00 +13°C° 0 mm 1 m/S 720 mmHg 71%
    09:00 +15°C° 0 mm 1 m/S 720 mmHg 63%
    10:00 +16°C° 0 mm 0 m/S 720 mmHg 55%
    11:00 +19°C° 0 mm 1 m/S 719 mmHg 51%
    12:00 +20°C° 0 mm 1 m/S 719 mmHg 47%
    13:00 +20°C° 0 mm 2 m/S 719 mmHg 42%
    14:00 +20°C° 0 mm 2 m/S 718 mmHg 42%
    15:00 +20°C° 0 mm 2 m/S 717 mmHg 42%
    16:00 +20°C° 0 mm 2 m/S 716 mmHg 42%
    17:00 +18°C° 0 mm 2 m/S 716 mmHg 47%
    18:00 +17°C° 0 mm 2 m/S 716 mmHg 52%
    19:00 +15°C° 0 mm 1 m/S 715 mmHg 58%
    20:00 +14°C° 0 mm 2 m/S 715 mmHg 58%
    21:00 +13°C° 0 mm 2 m/S 715 mmHg 58%
    22:00 +12°C° 0 mm 2 m/S 716 mmHg 58%
    23:00 +12°C° 0 mm 2 m/S 716 mmHg 57%

    26 April, Donnerstag

    Zeit Temperatur Niederschläge Wind Luftdruck Luftfeuchtigkeit
    00:00 +12°C° 0 mm 2 m/S 716 mmHg 56%
    01:00 +12°C° 0 mm 2 m/S 716 mmHg 55%
    02:00 +13°C° 0 mm 2 m/S 716 mmHg 52%
    03:00 +13°C° 0 mm 2 m/S 716 mmHg 49%
    04:00 +14°C° 0 mm 2 m/S 716 mmHg 46%
    05:00 +15°C° 0 mm 2 m/S 717 mmHg 46%
    06:00 +16°C° 0 mm 1 m/S 717 mmHg 45%
    07:00 +18°C° 0 mm 1 m/S 718 mmHg 45%
    08:00 +18°C° 0 mm 2 m/S 718 mmHg 45%
    09:00 +19°C° 0 mm 2 m/S 719 mmHg 46%
    10:00 +20°C° 0 mm 3 m/S 719 mmHg 46%
    11:00 +20°C° 0 mm 3 m/S 719 mmHg 48%
    12:00 +20°C° 0 mm 2 m/S 718 mmHg 49%
    13:00 +20°C° 0 mm 2 m/S 718 mmHg 50%
    14:00 +20°C° 0 mm 2 m/S 718 mmHg 52%
    15:00 +20°C° 0 mm 2 m/S 717 mmHg 54%
    16:00 +19°C° 0 mm 2 m/S 717 mmHg 55%
    17:00 +18°C° 0 mm 2 m/S 717 mmHg 61%
    18:00 +16°C° 0 mm 1 m/S 716 mmHg 67%
    19:00 +15°C° 0 mm 1 m/S 716 mmHg 74%
    20:00 +14°C° 0 mm 1 m/S 716 mmHg 76%
    21:00 +13°C° 0 mm 1 m/S 716 mmHg 79%
    22:00 +13°C° 0 mm 1 m/S 716 mmHg 82%
    23:00 +12°C° 0 mm 1 m/S 716 mmHg 84%

    27 April, Freitag

    Zeit Temperatur Niederschläge Wind Luftdruck Luftfeuchtigkeit
    00:00 +11°C° 0 mm 1 m/S 716 mmHg 87%
    01:00 +11°C° 0 mm 1 m/S 716 mmHg 89%
    02:00 +10°C° 0 mm 1 m/S 716 mmHg 90%
    03:00 +10°C° 0 mm 1 m/S 716 mmHg 92%
    04:00 +9°C° 0 mm 1 m/S 716 mmHg 93%
    05:00 +10°C° 0 mm 1 m/S 717 mmHg 88%
    06:00 +11°C° 0 mm 1 m/S 717 mmHg 84%
    07:00 +12°C° 0 mm 1 m/S 718 mmHg 79%
    08:00 +13°C° 0,2 mm 1 m/S 718 mmHg 78%
    09:00 +13°C° 0,2 mm 2 m/S 718 mmHg 78%
    10:00 +13°C° 0,2 mm 2 m/S 718 mmHg 78%
    11:00 +12°C° 1 mm 2 m/S 718 mmHg 82%
    12:00 +12°C° 1 mm 2 m/S 718 mmHg 86%
    13:00 +10°C° 1 mm 2 m/S 718 mmHg 90%
    14:00 +10°C° 0,5 mm 2 m/S 718 mmHg 89%
    15:00 +10°C° 0,5 mm 2 m/S 718 mmHg 89%
    16:00 +10°C° 0,5 mm 2 m/S 719 mmHg 89%
    17:00 +9°C° 0,1 mm 2 m/S 719 mmHg 89%
    18:00 +9°C° 0,1 mm 2 m/S 719 mmHg 90%
    19:00 +9°C° 0,1 mm 2 m/S 719 mmHg 90%
    20:00 +9°C° 0,1 mm 1 m/S 720 mmHg 91%
    21:00 +9°C° 0,1 mm 1 m/S 720 mmHg 93%
    22:00 +8°C° 0,1 mm 1 m/S 720 mmHg 94%
    23:00 +8°C° 0,1 mm 1 m/S 720 mmHg 94%

    28 April, Samstag

    Zeit Temperatur Niederschläge Wind Luftdruck Luftfeuchtigkeit
    00:00 +7°C° 0,1 mm 0 m/S 720 mmHg 94%
    01:00 +6°C° 0,1 mm 0 m/S 720 mmHg 94%
    02:00 +6°C° 0,3 mm 0 m/S 720 mmHg 94%
    03:00 +6°C° 0,3 mm 0 m/S 719 mmHg 94%
    04:00 +7°C° 0,3 mm 1 m/S 719 mmHg 94%
    05:00 +7°C° 1,1 mm 1 m/S 719 mmHg 94%
    06:00 +7°C° 1,1 mm 1 m/S 719 mmHg 94%
    07:00 +6°C° 1,1 mm 2 m/S 719 mmHg 94%
    08:00 +6°C° 1,8 mm 2 m/S 719 mmHg 93%
    09:00 +6°C° 1,8 mm 2 m/S 720 mmHg 93%
    10:00 +6°C° 1,8 mm 2 m/S 720 mmHg 93%
    11:00 +6°C° 0,9 mm 2 m/S 720 mmHg 92%
    12:00 +7°C° 0,9 mm 2 m/S 720 mmHg 90%
    13:00 +7°C° 0,9 mm 2 m/S 721 mmHg 89%
    14:00 +7°C° 0,1 mm 2 m/S 721 mmHg 87%
    15:00 +9°C° 0,1 mm 1 m/S 721 mmHg 84%
    16:00 +9°C° 0,1 mm 1 m/S 720 mmHg 82%
    17:00 +8°C° 0 mm 1 m/S 720 mmHg 84%
    18:00 +7°C° 0 mm 1 m/S 720 mmHg 86%
    19:00 +6°C° 0 mm 1 m/S 720 mmHg 88%
    20:00 +6°C° 0 mm 1 m/S 720 mmHg 89%
    21:00 +5°C° 0 mm 1 m/S 721 mmHg 90%
    22:00 +3°C° 0 mm 2 m/S 721 mmHg 91%
    23:00 +3°C° 0 mm 2 m/S 720 mmHg 90%
    Mehr zeigen